Longue Point De, Quebec

2:54 PM EST on February 19, 2017 (GMT -0500)
Longue-Pointe-de-Mingan

Weather History for CWBT - March, 2013

Change the Weather History Date:

Friday, March 15, 2013

  Actual Average (CYGV) Record (CYGV)
Temperature  
Mean Temperature 22 °F -  
Max Temperature 29 °F 24 °F 39 °F (2005)
Min Temperature 15 °F 6 °F -11 °F (2003)
Degree Days  
Heating Degree Days 43    
Moisture  
Dew Point 21 °F    
Average Humidity 83    
Maximum Humidity 97    
Minimum Humidity 62    
Precipitation  
Precipitation 0.00 in - - ()
Sea Level Pressure  
Sea Level Pressure 29.51 in    
Wind  
Wind Speed 7 mph ()    
Max Wind Speed 10 mph    
Max Gust Speed 21 mph    
Averages and records for this station are not official NWS values.
T = Trace of Precipitation, MM = Missing Value Source: Averaged Metar Reports

Daily Weather History Graph

Daily Weather History Graph

Search for Another Location

Airport or City:

Trip Planner

Search our weather history database for the weather conditions in past years. The results will help you decide how hot, cold, wet, or windy it might be!

Date:

Astronomy

Mar. 15, 2013 Rise Set
Actual Time 6:30 AM EDT 6:22 PM EDT
Civil Twilight 5:57 AM EDT 6:54 PM EDT
Nautical Twilight 5:19 AM EDT 7:32 PM EDT
Astronomical Twilight 4:41 AM EDT 8:11 PM EDT
Moon 7:51 AM EDT (3/15) 11:01 PM EDT (3/15)
Length of Visible Light 12h 56m
Length of Day
11h 52m
Waxing Crescent, 15% of the Moon is Illuminated
Mar 15
Waxing Crescent
Mar 19
First Quarter
Mar 27
Full
Apr 3
Last Quarter
Apr 10
New

Hourly Weather History & Observations

Time (EDT) Temp. Windchill Dew Point Humidity Pressure Visibility Wind Dir Wind Speed Gust Speed Precip Events Conditions
12:00 AM 28.8 °F 20.2 °F 28.0 °F 97% 29.45 in - WSW 9.2 mph - N/A   Unknown
1:00 AM 28.4 °F 19.1 °F 27.5 °F 96% 29.45 in - WSW 10.4 mph 17.3 mph N/A   Unknown
2:00 AM 28 °F - 27 °F 96% 29.46 in - West 10.4 mph - -  
3:00 AM 27.5 °F 18.6 °F 26.4 °F 96% 29.46 in - West 9.2 mph 17.3 mph N/A   Unknown
4:00 AM 27.1 °F 18.9 °F 26.1 °F 96% 29.47 in - West 8.1 mph - N/A   Unknown
5:00 AM 27.1 °F 19.7 °F 26.4 °F 97% 29.49 in - West 6.9 mph - N/A   Unknown
6:00 AM 26.4 °F 19.8 °F 25.5 °F 96% 29.50 in - West 5.8 mph - N/A   Unknown
7:00 AM 24.8 °F 16.9 °F 23.2 °F 94% 29.51 in - West 6.9 mph - N/A   Unknown
8:00 AM 27 °F - 23 °F 79% 29.51 in - West 8.1 mph - -  
8:00 AM 26.6 °F 18.2 °F 23.2 °F 87% 29.51 in - West 8.1 mph - N/A   Unknown
9:00 AM 28.6 °F 20.7 °F 23.2 °F 80% 29.52 in - West 8.1 mph - N/A   Unknown
10:00 AM 27.9 °F 18.4 °F 21.9 °F 78% 29.52 in - WSW 10.4 mph 20.7 mph N/A   Unknown
11:00 AM 29.5 °F 20.4 °F 23.4 °F 78% 29.51 in - WSW 10.4 mph 17.3 mph N/A   Unknown
12:00 PM 27.3 °F 18.4 °F 21.0 °F 77% 29.52 in - WSW 9.2 mph 19.6 mph N/A   Unknown
1:00 PM 28.6 °F 19.3 °F 20.8 °F 73% 29.51 in - WSW 10.4 mph 19.6 mph N/A   Unknown
2:00 PM 27 °F - 19 °F 62% 29.52 in - WSW 9.2 mph - -  
2:00 PM 27.3 °F 18.4 °F 19.2 °F 72% 29.52 in - WSW 9.2 mph 19.6 mph N/A   Unknown
3:00 PM 26.2 °F 16.4 °F 18.7 °F 73% 29.51 in - West 10.4 mph 20.7 mph N/A   Unknown
4:00 PM 25.7 °F 16.4 °F 16.3 °F 68% 29.51 in - WSW 9.2 mph - N/A   Unknown
5:00 PM 24.6 °F 16.7 °F 16.5 °F 71% 29.51 in - West 6.9 mph - N/A   Unknown
6:00 PM 23.2 °F 15.0 °F 15.6 °F 73% 29.52 in - WSW 6.9 mph - N/A   Unknown
7:00 PM 22.3 °F 16.1 °F 15.8 °F 76% 29.53 in - West 4.6 mph - N/A   Unknown
8:00 PM 22.1 °F 17.4 °F 15.8 °F 77% 29.54 in - WNW 3.5 mph - N/A   Unknown
9:00 PM 19.6 °F - 15.3 °F 83% 29.54 in - NW 2.3 mph - N/A   Unknown
10:00 PM 15.4 °F - 13.8 °F 93% 29.54 in - NW 2.3 mph - N/A   Unknown
11:00 PM 15.1 °F 9.4 °F 14.2 °F 96% 29.51 in - NW 3.5 mph - N/A   Unknown